Regional Weather Roundup
Issued by NWS Grand Forks, ND

Home | Current Version | Previous Version | Text Only | Print | Product List | Glossary Off
Versions: 1 2 3 4 5 6 7 8 9 10 11 12 13 14 15 16 17 18 19 20 21 22 23 24 25 26 27 28 29 30 31 32 33 34 35 36 37 38 39 40 41 42 43 44 45 46 47 48 49 50

000
ASUS43 KFGF 052331
RWRFGF
PRAIRIE TO PINES  WEATHER ROUNDUP
NATIONAL WEATHER SERVICE EASTERN NORTH DAKOTA/GRAND FORKS ND
500 PM CST MON DEC 05 2016

 **SATELLITE DATA USED TO AUGMENT SKY COVER AT AUTOMATED STATIONS**
 *****  WEATHER ACROSS EASTERN NORTH DAKOTA  *****

CITY           SKY/WX    TMP DP  RH WIND       PRES   REMARKS
GRAND FORKS    CLOUDY    31  28  89 NE9       29.60F WCI  23
GRAND FRKS AFB CLOUDY    30  27  91 NE13      29.59F WCI  20
GRAND FRKS NWS   N/A     30 N/A N/A NE6         N/A  WCI  24
DEVILS LAKE    LGT SNOW  26  25  96 NE10      29.60S FOG     WCI  16
FARGO          FLURRIES  35  29  78 E8        29.53S
WAHPETON ARPT  CLOUDY    34  32  93 SE9       29.47F
$$

 ***** WEATHER ACROSS CENTRAL AND WESTERN NORTH DAKOTA  *****

CITY           SKY/WX    TMP DP  RH WIND       PRES   REMARKS
BISMARCK       MIX PCPN  22  18  85 NW20G36   29.67R FOG     WCI   7
MINOT          CLOUDY    22  19  89 W21       29.61R WCI   6
JAMESTOWN      LGT SNOW  28  26  92 N10       29.54R VSB 3/4 WCI  19
MINOT AFB      CLOUDY    21  19  91 NW22      29.60R FOG     WCI   5
GARRISON         N/A     19  15  84 NW29G39   29.64R WCI   0
WILLISTON      SNOW      12   7  80 NW33G44   29.82R VSB 1/2 WCI -10
DICKINSON      SNOW      10   6  84 NW32G43   29.74R VSB 1/2 WCI -13
HETTINGER      LGT SNOW  13   8  81 NW30G38   29.78R VSB 3/4 WCI  -8
$$

 *****  OTHER AIRPORT OBSERVATIONS IN OUR AREA  *****

CITY           SKY/WX    TMP DP  RH WIND       PRES   REMARKS
WALHALLA         N/A     28  28 100 NE8       29.67S WCI  20
GRAFTON AIRPOR CLOUDY    30  30 100 NE13      29.64F WCI  20
VALLEY CITY AR LGT SNOW  28  28 100 NE9       29.53S WCI  20
CANDO          LGT SNOW  27  27 100 E13       29.63S WCI  16
CAVALIER APRT    N/A     30  27  86 NE6       29.67R WCI  24
GWINNER        CLOUDY    34  34 100 SE5       29.48S
SHEYENNE NWR     N/A     34  31  88 E7        29.95S
ROLLA          LGT SNOW  25  25 100 E8        29.61S WCI  16
 ***** THE ABOVE OBSERVATIONS ARE NON NWS ARE NOT QUALITY
       CONTROLLED AND MAY MIS-REPORT RAIN FOR SNOW...
$$

  *****  WEATHER ACROSS NORTHERN MINNESOTA  *****

CITY           SKY/WX    TMP DP  RH WIND       PRES   REMARKS
FLAG ISLAND    CLOUDY    30  25  80 E6        29.69F WCI  24
WARROAD        CLOUDY    30  27  86 E15G21    29.68S WCI  19
ROSEAU         CLOUDY    30  27  86 E14       29.66F WCI  20
HALLOCK        CLOUDY    30  27  86 E13       29.65F WCI  20
THF RVR FALLS  CLOUDY    29  27  92 E17       29.61F WCI  17
BAUDETTE       CLOUDY    30  25  81 E13       29.68F WCI  20
WASKISH        CLOUDY    30  27  86 E12G17    29.66F WCI  21
CROOKSTON      CLOUDY    30  28  93 E12       29.59S WCI  21
STEPHEN NDAWN    N/A     30  27  86 NE10        N/A  WCI  21
GREENBUSH NDAW   N/A     28  28 100 E8          N/A  WCI  20
$$
  *****  WEATHER ACROSS CENTRAL AND WEST MINNESOTA  *****

CITY           SKY/WX    TMP DP  RH WIND       PRES   REMARKS
FOSSTON        CLOUDY    28  27  93 E12       29.56F WCI  18
BEMIDJI        LGT SNOW  31  28  91 E15       29.59F WCI  20
PARK RAPIDS    SNOW      32  28  85 E15       29.55S VSB 1/2 WCI  22
ELBOW LAKE     CLOUDY    34  32  92 SE9       29.48F
WADENA         LGT SNOW  30  30 100 E9        29.52F WCI  22
DETROIT LAKES  FLURRIES  32  32 100 E10G20    29.52F WCI  24
MOORHEAD       CLOUDY    34  30  86 E9        29.52F
FERGUS FALLS   CLOUDY    36  30  80 SE12      29.52F
MORRIS MN      CLOUDY    36  34  93 SE12      29.48F
STAPLES        CLOUDY    30  30 100 E7        29.55F WCI  23
$$
  *****  WEATHER ELSEWHERE ACROSS MINNESOTA  *****

CITY           SKY/WX    TMP DP  RH WIND       PRES   REMARKS
DULUTH         SNOW      33  32  96 E18       29.71F VSB 1/2 WCI  22
INTRNTL FALLS  CLOUDY    30  24  78 E12       29.71F WCI  20
ELY            CLOUDY    28  27  93 E7        29.75S WCI  21
CLOQUET        LGT SNOW  34  30  86 E10       29.68F
WHEATON        MOCLDY    34  34 100 SE8       29.49F
BRAINERD       CLOUDY    33  32  96 E6G16     29.59F
HIBBING        LGT SNOW  30  29  96 E12       29.69F VSB 3/4 WCI  20
ALEXANDRIA     CLOUDY    35  33  92 SE16G23   29.52F
SAINT CLOUD    CLOUDY    36  33  89 SE8       29.59F
MINNEAPOLIS    CLOUDY    38  31  76 S21G28    29.66F
$$

  *****  WEATHER ACROSS SOUTH DAKOTA  *****

CITY           SKY/WX    TMP DP  RH WIND       PRES   REMARKS
SIOUX FALLS    MOCLDY    39  32  76 W15G31    29.59R
BROOKINGS      MOCLDY    34  28  80 W21G26    29.53R WCI  22
WATERTOWN      CLOUDY    33  29  85 W24G32    29.49R WCI  20
HURON          CLOUDY    33  28  81 NW24G36   29.59R WCI  20
SISSETON         N/A     34  32  92 S6        29.46F
ABERDEEN       CLOUDY    33  28  81 W18G25    29.51R WCI  22
MITCHELL       CLOUDY    35  29  78 NW23G32   29.65R WCI  23
PIERRE         LGT SNOW  25  21  85 NW36G43   29.75R VSB 3/4 WCI   7
MOBRIDGE       BLWGSNOW  24  18  77 NW31G47   29.63R VSB 1/4 WCI   7
RAPID CITY     MOCLDY    24  10  55 NW23G35   29.79R WCI   9
$$

  *****  SOME WEATHER IN NEARBY STATES *****

CITY           SKY/WX    TMP DP  RH WIND       PRES   REMARKS
GLASGOW MT     CLOUDY     8  -1  66 NW24G33   30.01R WCI -13
GREAT FALLS MT CLOUDY    10   4  76 NW9       30.06S WCI  -3
CHEYENNE WY    CLOUDY    23 -11  22 W16G31    29.78R WCI  10
SCOTTSBLUFF NE CLEAR     26  14  60 NW21G31   29.84R WCI  12
OMAHA NE       MOCLDY    48  36  63 S9        29.66R
DES MOINES IA  PTCLDY    44  35  70 S10       29.74F
DAVENPORT IA   CLOUDY    33  31  92 SE9       29.90F
CHICAGO IL     CLOUDY    32  30  92 S7        29.99S
EAU CLAIRE WI  CLOUDY    36  32  85 SE17      29.76F
LA CROSSE WI   CLOUDY    38  31  76 S14       29.83F
$$

  *****  SOME NATIONAL WEATHER *****

CITY           SKY/WX    TMP DP  RH WIND       PRES   REMARKS
LA GUARDIA NY  PTCLDY    48  35  60 N13       30.02S
RALEIGH NC     CLOUDY    53  42  66 NE3       30.03R
ATLANTA GA     RAIN      52  52 100 NE6       29.95R FOG
NEW ORLEANS LA LGT RAIN  62  62 100 E6        29.70S FOG
OKLAHOMA CITY  PTCLDY    48  41  76 SE12      29.66F
ALBUQUERQUE NM PTCLDY    54  17  23 SW6       29.79S
SALT LAKE CITY PTCLDY    31   8  38 N5        30.04S
LOS ANGELES CA MOSUNNY   63  54  72 W9        29.91F
BOISE ID       CLEAR     34  14  43 E3        30.08S
SEATTLE WA     CLOUDY    38  35  89 S6        30.02S
$$

*** WEATHER ACROSS MANITOBA...SASKATCHEWAN AND ONTARIO ***
                ***ONTARIO***

CITY           SKY/WX    TMP DP  RH WIND       PRES   REMARKS
GERALDTON      CLOUDY    28  28 100 CALM      29.80R
THUNDER BAY    FLURRIES  34  27  75 CALM      29.85R
SIOUX LOOKOUT  MOCLDY    30  27  86 E2        29.77R
TORONTO        MOCLDY    39  30  70 W9        30.03R
BIG TROUT LK   CLOUDY    27  25  93 S2        29.83S
PICKLE LAKE    FLURRIES  27  25  93 CALM      29.79R
DRYDEN         CLOUDY    30  27  86 SE3       29.74S
KENORA         FLURRIES  28  25  86 E6        29.73S WCI  22
$$
                *** MANITOBA***

CITY           SKY/WX    TMP DP  RH WIND       PRES   REMARKS
BRANDON        LGT SNOW  27  25  93 NE12      29.68R DRFTSNOWWCI  16
DAUPHIN        LGT SNOW  25  23  93 N14       29.79S WCI  13
ISLAND LAKE    FLURRIES  27  25  93 CALM      29.82R
PILOT MOUND      N/A     25  25 100 E12         N/A  WCI  14
THE PAS        FLURRIES  23  19  86 W13       29.85R WCI  11
THOMPSON       LGT SNOW  23  23 100 CALM      29.83R
WINNIPEG       CLOUDY    30  27  86 E13       29.72R WCI  20
LYNN LAKE      FLURRIES  23  23 100 N3        29.81R
CHURCHILL      FLURRIES  23  21  93 N8        29.91S WCI  14
GILLAM         LGT SNOW  18  16  93 N5        29.87R WCI  11
$$
                ***SASKATCHEWAN***

CITY           SKY/WX    TMP DP  RH WIND       PRES   REMARKS
ESTEVAN        HVY SNOW  18  14  86 NW28G40   29.74R VSB 1/4 WCI  -1
KINDERSLEY     CLOUDY     3  -2  78 NW18      30.05R BLWGSNOWWCI -17
LLOYDMINSTER   MOCLDY     1  -6  71 NW16G23   30.07R WCI -18
PRINCE ALBERT  CLOUDY    10   1  67 NW13G20   29.97R WCI  -5
REGINA         LGT SNOW  14  10  85 NW21G30   29.88R BLWGSNOWWCI  -4
YORKTON        CLOUDY    21  19  93 N17       29.80R WCI   7
N. BATTLEFORD  FLURRIES   5  -2  72 NW18      30.07R WCI -15
LA RONGE       FLURRIES  10   3  72 W12G26    29.95R WCI  -4
SASKATOON      FLURRIES   9   1  72 NW18      30.01R WCI -10
SWIFT CURRENT  CLOUDY     3   0  85 NW26G33   29.95R WCI -20
$$
NOTE: THESE ARE AUTOMATED STATIONS WITH LIMITED QUALITY CONTROL
      "FAIR" INDICATES FEW OR NO CLOUDS BELOW 12,000 FEET WITH NO
      SIGNIFICANT WEATHER AND/OR OBSTRUCTIONS TO VISIBILITY.
      SKY/WX - SKY CONDITION AND SIGNIFICANT WEATHER.
      TMP - AIR TEMPERATURE.    DP   - DEWPOINT TEMPERATURE.
      RH  - RELATIVE HUMIDITY.  PRES - PRESSURE.
      HX  - HEAT INDEX.         WCI  - WIND CHILL INDEX.
$




USA.gov is the U.S. government's official web portal to all federal, state and local government web resources and services.